[Date Prev][Date Next][Thread Prev][Thread Next] - [Date Index][Thread Index][Author Index]

2 Line ISS Keps 1-4



ISS
1 25544U 98067A   02004.15003472  .00056263  00000-0  63473-3 0  9198
2 25544  51.6383 157.4119 0002598  80.2821 262.2245 15.61947094178433


----
Via the sarex mailing list at AMSAT.ORG courtesy of AMSAT-NA.
To unsubscribe, send "unsubscribe sarex" to Majordomo@amsat.org



AMSAT Top AMSAT Home